Flag for Canada Weather past 2 weeks in Conception Bay South, Newfoundland and Labrador, Canada

Now
77 °F

Partly sunny.


Feels Like: 79 °F
Forecast: 55 / 71 °F
Wind: 16 mph from West

Location: St. John's

Current Time: Aug 3, 2015 at 5:49:08 PM

Latest Report: Aug 3, 2015 at 5:30 PM


Visibility: 15 mi

Pressure: 29.93 "Hg

Humidity: 51%

Dew point: 57 °F

Location of Conception Bay SouthLocation

Historic Weather in Conception Bay South — Graph

°F

Conception Bay South temperature yesterday

Maximum temperature yesterday: 81 °F (at 3:30 PM)
Minimum temperature yesterday: 57 °F (at 12:30 AM)
Average temperature yesterday: 67 °F

Past Weeks' High & Low Weather Summary

 TemperatureHumidityPressure
High81 °F (Aug 2, 3:30 PM)100% (Jul 20, 10:30 PM)30.24 "Hg (Jul 20, 10:30 PM)
Low43 °F (Jul 25, 3:30 AM)51% (Aug 2, 5:30 PM)29.26 "Hg (Jul 23, 11:30 AM)
Average52 °F92%29.92 "Hg
* Reported Jul 19 4:30 PM — Aug 3 4:30 PM, Conception Bay South, Weather by CustomWeather, © 2015

Note: Actual official high and low records may vary slightly from our data, if they occured in-between our weather recording intervals... More about our weather records

Advertising

Conception Bay South weather history for previous 24 hours

 ConditionsComfort  
Time TempWeatherWind HumidityBarometerVisibility
4:30 PM
Mon, Aug 3
75 °FScattered clouds.17 mph54%29.93 "Hg15 mi
3:30 PM75 °FScattered clouds.18 mph57%29.91 "Hg15 mi
2:30 PM77 °FPartly sunny.21 mph54%29.91 "Hg15 mi
1:30 PM73 °FPartly sunny.18 mph57%29.91 "Hg15 mi
12:30 PM73 °FPartly sunny.22 mph53%29.90 "Hg15 mi
11:30 AM72 °FScattered clouds.21 mph65%29.91 "Hg15 mi
10:30 AM70 °FScattered clouds.17 mph69%29.90 "Hg15 mi
9:30 AM66 °FScattered clouds.14 mph73%29.90 "Hg15 mi
8:30 AM63 °FPassing clouds.15 mph83%29.88 "Hg15 mi
7:30 AM59 °FPassing clouds.14 mph94%29.86 "Hg15 mi
6:30 AM55 °FScattered clouds.14 mph100%29.86 "Hg15 mi
5:30 AM55 °FPassing clouds.15 mph100%29.84 "Hg15 mi
4:30 AM57 °FClear.12 mph94%29.82 "Hg15 mi
3:30 AM57 °FClear.15 mph94%29.79 "Hg15 mi
2:30 AM59 °FClear.17 mph88%29.79 "Hg15 mi
1:30 AM59 °FClear.13 mph88%29.78 "Hg15 mi
12:30 AM59 °FClear.16 mph94%29.78 "Hg15 mi
11:30 PM
Sun, Aug 2
61 °FClear.18 mph88%29.76 "Hg15 mi
10:30 PM61 °FPassing clouds.18 mph94%29.77 "Hg15 mi
9:30 PM63 °FPassing clouds.16 mph94%29.76 "Hg15 mi
8:30 PM66 °FScattered clouds.16 mph88%29.75 "Hg15 mi
7:30 PM73 °FPassing clouds.17 mph65%29.72 "Hg15 mi
6:30 PM79 °FPassing clouds.18 mph51%29.72 "Hg15 mi
5:30 PM81 °FPartly sunny.15 mph51%29.73 "Hg15 mi
Weather by CustomWeather, © 2015

See weather overviewHow to use our weather pages